Location: Cahas Mountain Overlook
(37.0833°N, 80.1000°W)
Time: 08:05:24
(UTC-04:00)

Tiros 1 - Pass Details

Date: 15 February 2026
Orbit: 618 x 650 km, 48.4° (Epoch: 14 March)

Event Time Altitude Azimuth Distance (km) Brightness Sun altitude
Rises 17:18:53 0° 290° (WNW) 2,883 11.3 7.0°
Reaches altitude 10° 17:21:47 10° 272° (W) 1,975 11.2 6.5°
Maximum altitude 17:24:51 18° 229° (SW) 1,518 10.6 5.9°
Drops below altitude 10° 17:27:55 10° 186° (S) 1,975 10.1 5.4°
Sets 17:30:50 0° 167° (SSE) 2,882 10.6 4.8°
